When you browse on this site, cookies collect data to enhance your experience and personalize the content and advertising you see.
Visit our Privacy Policy to learn more. By continuing to use the site, you agree to this use of cookies and data.
  • In Hungary
  • List of Countries
  • For 7 days
  • Water Temperature
  • Satellite Maps
  • Weather Map
  • News
  • Weather Widgets
  • user-avatar
    Login

    Hourly Weather Bugojno

    Today, 19 April, Friday

    Time Temperature Precipitation Wind Pressure Humidity
    00:00 +6°C° 0 mm 1 mps 718 mmHg 95%
    01:00 +6°C° 0 mm 1 mps 718 mmHg 94%
    02:00 +6°C° 0 mm 1 mps 718 mmHg 94%
    03:00 +6°C° 0 mm 1 mps 718 mmHg 94%
    04:00 +6°C° 0 mm 1 mps 718 mmHg 93%
    05:00 +7°C° 0 mm 1 mps 718 mmHg 89%
    06:00 +8°C° 0 mm 1 mps 719 mmHg 85%
    07:00 +10°C° 0 mm 1 mps 719 mmHg 81%
    08:00 +12°C° 0 mm 2 mps 719 mmHg 74%
    09:00 +13°C° 0 mm 2 mps 719 mmHg 67%
    10:00 +14°C° 0 mm 3 mps 719 mmHg 59%
    11:00 +14°C° 0 mm 3 mps 719 mmHg 58%
    12:00 +16°C° 0 mm 3 mps 719 mmHg 57%
    13:00 +16°C° 0 mm 3 mps 719 mmHg 56%
    14:00 +16°C° 0 mm 3 mps 719 mmHg 57%
    15:00 +16°C° 0 mm 3 mps 719 mmHg 57%
    16:00 +16°C° 0 mm 3 mps 718 mmHg 57%
    17:00 +13°C° 0 mm 3 mps 718 mmHg 67%
    18:00 +12°C° 0 mm 2 mps 718 mmHg 77%
    19:00 +9°C° 0 mm 2 mps 718 mmHg 87%
    20:00 +10°C° 0 mm 1 mps 718 mmHg 89%
    21:00 +9°C° 0 mm 1 mps 718 mmHg 91%
    22:00 +9°C° 0 mm 1 mps 718 mmHg 92%
    23:00 +9°C° 0 mm 1 mps 718 mmHg 92%

    Tomorrow, 20 April, Saturday

    Time Temperature Precipitation Wind Pressure Humidity
    00:00 +8°C° 0 mm 1 mps 718 mmHg 91%
    01:00 +8°C° 0 mm 1 mps 718 mmHg 90%
    02:00 +8°C° 0 mm 1 mps 718 mmHg 91%
    03:00 +7°C° 0 mm 1 mps 718 mmHg 91%
    04:00 +7°C° 0 mm 1 mps 718 mmHg 92%
    05:00 +8°C° 0 mm 1 mps 718 mmHg 88%
    06:00 +8°C° 0 mm 2 mps 718 mmHg 85%
    07:00 +10°C° 0 mm 2 mps 718 mmHg 81%
    08:00 +11°C° 0 mm 3 mps 718 mmHg 69%
    09:00 +12°C° 0 mm 4 mps 718 mmHg 57%
    10:00 +14°C° 0 mm 5 mps 719 mmHg 45%
    11:00 +14°C° 0 mm 4 mps 718 mmHg 43%
    12:00 +15°C° 0 mm 4 mps 718 mmHg 40%
    13:00 +15°C° 0 mm 4 mps 718 mmHg 38%
    14:00 +15°C° 0 mm 4 mps 718 mmHg 40%
    15:00 +15°C° 0 mm 4 mps 718 mmHg 43%
    16:00 +14°C° 0 mm 3 mps 718 mmHg 46%
    17:00 +12°C° 0 mm 3 mps 717 mmHg 56%
    18:00 +10°C° 0 mm 2 mps 717 mmHg 65%
    19:00 +9°C° 0 mm 1 mps 717 mmHg 74%
    20:00 +9°C° 0 mm 1 mps 717 mmHg 78%
    21:00 +8°C° 0 mm 1 mps 717 mmHg 81%
    22:00 +7°C° 0 mm 1 mps 717 mmHg 85%
    23:00 +6°C° 0 mm 0 mps 717 mmHg 85%

    Day after tomorrow, 21 April, Sunday

    Time Temperature Precipitation Wind Pressure Humidity
    00:00 +5°C° 0 mm 0 mps 717 mmHg 86%
    01:00 +5°C° 0 mm 0 mps 717 mmHg 86%
    02:00 +5°C° 0 mm 0 mps 716 mmHg 86%
    03:00 +5°C° 0 mm 1 mps 716 mmHg 85%
    04:00 +5°C° 0 mm 1 mps 716 mmHg 84%
    05:00 +7°C° 0 mm 1 mps 716 mmHg 76%
    06:00 +8°C° 0 mm 1 mps 716 mmHg 68%
    07:00 +10°C° 0 mm 1 mps 716 mmHg 60%
    08:00 +13°C° 0 mm 1 mps 716 mmHg 51%
    09:00 +15°C° 0 mm 1 mps 716 mmHg 42%
    10:00 +19°C° 0 mm 1 mps 717 mmHg 33%
    11:00 +20°C° 0 mm 1 mps 716 mmHg 31%
    12:00 +21°C° 0 mm 1 mps 716 mmHg 30%
    13:00 +22°C° 0 mm 1 mps 716 mmHg 28%
    14:00 +21°C° 0 mm 1 mps 715 mmHg 30%
    15:00 +21°C° 0 mm 1 mps 715 mmHg 32%
    16:00 +20°C° 0 mm 1 mps 714 mmHg 34%
    17:00 +18°C° 0 mm 1 mps 714 mmHg 45%
    18:00 +14°C° 0 mm 1 mps 714 mmHg 56%
    19:00 +12°C° 0 mm 1 mps 713 mmHg 67%
    20:00 +11°C° 0 mm 1 mps 713 mmHg 73%
    21:00 +10°C° 0 mm 1 mps 713 mmHg 79%
    22:00 +10°C° 0 mm 1 mps 713 mmHg 85%
    23:00 +9°C° 0 mm 1 mps 713 mmHg 87%

    22 April, Monday

    Time Temperature Precipitation Wind Pressure Humidity
    00:00 +9°C° 0 mm 1 mps 713 mmHg 89%
    01:00 +8°C° 0 mm 2 mps 712 mmHg 91%
    02:00 +7°C° 0 mm 2 mps 712 mmHg 91%
    03:00 +7°C° 0 mm 2 mps 712 mmHg 91%
    04:00 +7°C° 0 mm 2 mps 711 mmHg 91%
    05:00 +8°C° 0 mm 2 mps 711 mmHg 86%
    06:00 +9°C° 0 mm 2 mps 711 mmHg 80%
    07:00 +10°C° 0 mm 2 mps 711 mmHg 75%
    08:00 +13°C° 0 mm 2 mps 711 mmHg 66%
    09:00 +15°C° 0 mm 2 mps 711 mmHg 58%
    10:00 +17°C° 0 mm 3 mps 711 mmHg 49%
    11:00 +17°C° 0 mm 3 mps 711 mmHg 50%
    12:00 +18°C° 0 mm 4 mps 710 mmHg 52%
    13:00 +18°C° 0 mm 4 mps 710 mmHg 53%
    14:00 +17°C° 0 mm 4 mps 709 mmHg 55%
    15:00 +17°C° 0 mm 4 mps 709 mmHg 57%
    16:00 +15°C° 0 mm 4 mps 708 mmHg 59%
    17:00 +14°C° 0 mm 4 mps 708 mmHg 64%
    18:00 +13°C° 0 mm 3 mps 707 mmHg 69%
    19:00 +11°C° 0 mm 3 mps 707 mmHg 74%
    20:00 +11°C° 0.1 mm 3 mps 707 mmHg 76%
    21:00 +11°C° 0.1 mm 4 mps 707 mmHg 79%
    22:00 +10°C° 0.1 mm 4 mps 707 mmHg 81%
    23:00 +10°C° 1 mm 4 mps 706 mmHg 85%

    23 April, Tuesday

    Time Temperature Precipitation Wind Pressure Humidity
    00:00 +10°C° 1 mm 4 mps 706 mmHg 88%
    01:00 +10°C° 1 mm 4 mps 706 mmHg 92%
    02:00 +10°C° 0.1 mm 4 mps 706 mmHg 92%
    03:00 +10°C° 0.1 mm 4 mps 705 mmHg 93%
    04:00 +10°C° 0.1 mm 4 mps 705 mmHg 93%
    05:00 +10°C° 0.1 mm 5 mps 705 mmHg 92%
    06:00 +10°C° 0.1 mm 5 mps 705 mmHg 91%
    07:00 +11°C° 0.1 mm 6 mps 705 mmHg 90%
    08:00 +11°C° 0.1 mm 6 mps 705 mmHg 89%
    09:00 +11°C° 0.1 mm 6 mps 706 mmHg 88%
    10:00 +13°C° 0.1 mm 6 mps 706 mmHg 87%
    11:00 +12°C° 0.1 mm 7 mps 706 mmHg 84%
    12:00 +14°C° 0.1 mm 7 mps 706 mmHg 81%
    13:00 +15°C° 0.1 mm 8 mps 706 mmHg 78%
    14:00 +15°C° 0.1 mm 7 mps 706 mmHg 78%
    15:00 +14°C° 0.1 mm 7 mps 707 mmHg 79%
    16:00 +14°C° 0.1 mm 6 mps 707 mmHg 79%
    17:00 +14°C° 0.3 mm 6 mps 707 mmHg 83%
    18:00 +13°C° 0.3 mm 5 mps 707 mmHg 87%
    19:00 +13°C° 0.3 mm 4 mps 707 mmHg 91%
    20:00 +13°C° 0.4 mm 4 mps 708 mmHg 91%
    21:00 +12°C° 0.4 mm 4 mps 709 mmHg 92%
    22:00 +12°C° 0.4 mm 4 mps 709 mmHg 92%
    23:00 +12°C° 0.2 mm 4 mps 709 mmHg 93%

    24 April, Wednesday

    Time Temperature Precipitation Wind Pressure Humidity
    00:00 +12°C° 0.2 mm 4 mps 710 mmHg 93%
    01:00 +12°C° 0.2 mm 4 mps 710 mmHg 94%
    02:00 +12°C° 0 mm 3 mps 710 mmHg 94%
    03:00 +12°C° 0 mm 3 mps 710 mmHg 94%
    04:00 +13°C° 0 mm 2 mps 710 mmHg 94%
    05:00 +12°C° 0 mm 3 mps 711 mmHg 92%
    06:00 +13°C° 0 mm 3 mps 711 mmHg 89%
    07:00 +13°C° 0 mm 3 mps 711 mmHg 87%
    08:00 +16°C° 0 mm 3 mps 712 mmHg 80%
    09:00 +17°C° 0 mm 3 mps 712 mmHg 74%
    10:00 +18°C° 0 mm 3 mps 712 mmHg 67%
    11:00 +19°C° 0 mm 3 mps 713 mmHg 63%
    12:00 +21°C° 0 mm 3 mps 713 mmHg 58%
    13:00 +22°C° 0 mm 3 mps 713 mmHg 54%
    14:00 +21°C° 0 mm 3 mps 713 mmHg 55%
    15:00 +21°C° 0 mm 3 mps 713 mmHg 56%
    16:00 +21°C° 0 mm 3 mps 713 mmHg 57%
    17:00 +19°C° 0 mm 2 mps 712 mmHg 66%
    18:00 +17°C° 0 mm 2 mps 712 mmHg 75%
    19:00 +15°C° 0 mm 1 mps 712 mmHg 84%
    20:00 +14°C° 0 mm 1 mps 712 mmHg 86%
    21:00 +14°C° 0 mm 1 mps 712 mmHg 88%
    22:00 +13°C° 0 mm 2 mps 713 mmHg 89%
    23:00 +13°C° 0 mm 2 mps 712 mmHg 88%
    Show more